Location: ?�kov
(49.4404°N, 15.1201°E)
Time: 01:46:29
(UTC+00:00)

Cosmos 2298 Rocket - Pass Details

Date: 07 June 2020
Orbit: 776 x 784 km, 74.0° (Epoch: 11 July)

Event Time Altitude Azimuth Distance (km) Brightness Sun altitude
Rises 00:08:12 0° 335° (NNW) 3,271 8.0 -16.1°
Reaches altitude 10° 00:10:36 10° 334° (NNW) 2,340 7.2 -16.0°
Maximum altitude 00:15:55 79° 249° (WSW) 801 4.0 -15.7°
Enters shadow 00:19:51 18° 165° (SSE) 1,813 5.5 -15.5°
